Вернуться в каталог

HULIANWANG DIGUI-92

АктивенСвязьLEO
NORAD 66000·PAYLOAD·🇨🇳 China

Запущен Oct 16, 2025 с Wenchang Space Launch Site

Loading…

Ближайшие Пролёты (ближайшие 24 часа)

TLE

СвежийSource: Space-Track

Эпоха: Sep 14, 2026, 05:15 UTC

1 66000U 25231F   26257.21926675 -.00000100  00000-0  51657-4 0  9995
2 66000  50.0040 216.3437 0000293  41.4356 318.6538 13.29327143 44733

Отслеживайте HULIANWANG DIGUI-92 в реальном времени с AllMySat

Download on the App Store